Quantico, VA

2:04 PM EDT on September 19, 2017 (GMT -0400)
Quantico Marine Corps Air Facility

Weather History for KNYG - February, 2013

Change the Weather History Date:

Monday, February 25, 2013

  Actual Average Record
Temperature  
Mean Temperature 36 °F -  
Max Temperature 44 °F 48 °F 69 °F (2017)
Min Temperature 28 °F 30 °F 16 °F (2015)
Degree Days  
Heating Degree Days 29    
Moisture  
Dew Point 22 °F    
Average Humidity 56    
Maximum Humidity 76    
Minimum Humidity 43    
Precipitation  
Precipitation 0.00 in - - ()
Sea Level Pressure  
Sea Level Pressure 30.21 in    
Wind  
Wind Speed 6 mph (NNE)    
Max Wind Speed 15 mph    
Max Gust Speed 20 mph    
Visibility 10 miles    
Events      
Averages and records for this station are not official NWS values.
T = Trace of Precipitation, MM = Missing Value Source: NWS Daily Summary

Daily Weather History Graph

Daily Weather History Graph

Search for Another Location

Airport or City:

Trip Planner

Search our weather history database for the weather conditions in past years. The results will help you decide how hot, cold, wet, or windy it might be!

Date:

Astronomy

Feb. 25, 2013 Rise Set
Actual Time 6:46 AM EST 5:58 PM EST
Civil Twilight 6:19 AM EST 6:25 PM EST
Nautical Twilight 5:49 AM EST 6:55 PM EST
Astronomical Twilight 5:18 AM EST 7:26 PM EST
Moon 6:08 PM EST (2/25) 6:16 AM EST (2/25)
Length of Visible Light 12h 05m
Length of Day
11h 11m
Full, 100% of the Moon is Illuminated
Feb 25
Full
Feb 25
Full
Mar 4
Last Quarter
Mar 11
New
Mar 19
First Quarter

Hourly Weather History & Observations

Time (EST) Temp. Windchill Dew Point Humidity Pressure Visibility Wind Dir Wind Speed Gust Speed Precip Events Conditions
12:56 AM 34.0 °F 26.0 °F 16.0 °F 48% 30.15 in 10.0 mi NNW 10.4 mph - N/A   Clear
1:56 AM 33.1 °F 26.9 °F 16.0 °F 50% 30.16 in 10.0 mi North 6.9 mph - N/A   Clear
2:56 AM 33.1 °F 30.0 °F 16.0 °F 50% 30.16 in 10.0 mi North 3.5 mph - N/A   Clear
3:56 AM 32.0 °F 28.7 °F 16.0 °F 52% 30.17 in 10.0 mi NNW 3.5 mph - N/A   Clear
4:56 AM 30.9 °F 27.5 °F 17.1 °F 57% 30.18 in 10.0 mi NW 3.5 mph - N/A   Clear
5:56 AM 30.9 °F 27.5 °F 17.1 °F 57% 30.19 in 10.0 mi North 3.5 mph - N/A   Clear
6:56 AM 28.9 °F 22.8 °F 19.0 °F 67% 30.22 in 10.0 mi NW 5.8 mph - N/A   Scattered Clouds
7:56 AM 33.1 °F 24.4 °F 19.0 °F 56% 30.21 in 10.0 mi North 11.5 mph - N/A   Scattered Clouds
8:56 AM 36.0 °F 26.7 °F 19.0 °F 50% 30.21 in 10.0 mi North 15.0 mph 19.6 mph N/A   Mostly Cloudy
9:56 AM 39.9 °F 33.9 °F 19.0 °F 43% 30.24 in 10.0 mi NNE 9.2 mph - N/A   Mostly Cloudy
10:56 AM 41.0 °F 37.1 °F 21.9 °F 47% 30.24 in 10.0 mi East 5.8 mph - N/A   Mostly Cloudy
11:56 AM 42.1 °F 39.2 °F 24.1 °F 49% 30.24 in 10.0 mi ESE 4.6 mph - N/A   Mostly Cloudy
12:56 PM 42.1 °F 39.2 °F 28.0 °F 58% 30.22 in 10.0 mi SE 4.6 mph - N/A   Overcast
1:56 PM 44.1 °F 41.5 °F 23.0 °F 43% 30.20 in 10.0 mi East 4.6 mph - N/A   Overcast
2:56 PM 44.1 °F 41.5 °F 28.9 °F 55% 30.19 in 10.0 mi East 4.6 mph - N/A   Overcast
3:56 PM 44.1 °F 41.5 °F 28.0 °F 53% 30.19 in 10.0 mi East 4.6 mph - N/A   Mostly Cloudy
4:56 PM 42.1 °F 38.4 °F 30.0 °F 62% 30.20 in 10.0 mi SSW 5.8 mph - N/A   Mostly Cloudy
5:56 PM 41.0 °F 37.1 °F 28.0 °F 60% 30.20 in 10.0 mi SSW 5.8 mph - N/A   Scattered Clouds
6:56 PM 41.0 °F - 21.0 °F 45% 30.22 in 10.0 mi Calm Calm - N/A   Clear
7:56 PM 37.0 °F - 27.0 °F 67% 30.23 in 10.0 mi Calm Calm - N/A   Clear
8:56 PM 37.9 °F 33.5 °F 27.0 °F 65% 30.24 in 10.0 mi SSE 5.8 mph - N/A   Clear
9:56 PM 37.9 °F - 26.1 °F 62% 30.23 in 10.0 mi Calm Calm - N/A   Clear
10:56 PM 32.0 °F 27.5 °F 25.0 °F 75% 30.22 in 10.0 mi NW 4.6 mph - N/A   Clear
11:56 PM 30.9 °F 24.3 °F 24.1 °F 76% 30.23 in 10.0 mi NW 6.9 mph - N/A   Clear